Change the Weather History Date:

Tuesday, September 25, 2012

  Actual Average Record
Temperature  
Mean Temperature 70 °F 64 °F  
Max Temperature 85 °F 78 °F 96 °F (1990)
Min Temperature 55 °F 50 °F 32 °F (1961)
Degree Days  
Heating Degree Days 0 4  
Month to date heating degree days 43 44  
Since 1 July heating degree days 43 48  
Cooling Degree Days 5 3  
Month to date cooling degree days 137 150  
Year to date cooling degree days 1638 1266  
Growing Degree Days 20 (Base 50)    
Moisture  
Dew Point 49 °F    
Average Humidity 56    
Maximum Humidity 84    
Minimum Humidity 27    
Precipitation  
Precipitation 0.03 in 0.05 in 0.62 in (1955)
Month to date precipitation 0.54 1.26  
Year to date precipitation 10.69 16.91  
Sea Level Pressure  
Sea Level Pressure 29.80 in    
Wind  
Wind Speed 13 mph (NE)    
Max Wind Speed 23 mph    
Max Gust Speed 28 mph    
Visibility 10 miles    
Events Rain , Thunderstorm    
T = Trace of Precipitation, MM = Missing Value Source: NWS Daily Summary

Daily Weather History Graph

Daily Weather History Graph

Search for Another Location

Airport or City:

Trip Planner

Search our weather history database for the weather conditions in past years. The results will help you decide how hot, cold, wet, or windy it might be!

Date:

Astronomy

Sep. 25, 2012 Rise Set
Actual Time 7:33 AM CDT 7:34 PM CDT
Civil Twilight 7:07 AM CDT 8:00 PM CDT
Nautical Twilight 6:36 AM CDT 8:31 PM CDT
Astronomical Twilight 6:05 AM CDT 9:01 PM CDT
Moon 4:56 PM CDT (9/25) 3:01 AM CDT (9/25)
Length of Visible Light 12h 53m
Length of Day
12h 00m
Waxing Gibbous, 80% of the Moon is Illuminated
Sep 25
Waxing Gibbous
Sep 29
Full
Oct 8
Last Quarter
Oct 15
New
Oct 21
First Quarter

Hourly Weather History & Observations

Time (CDT) Temp. Dew Point Humidity Pressure Visibility Wind Dir Wind Speed Gust Speed Precip Events Conditions
12:54 AM 59.0 °F 46.9 °F 64% 29.82 in 10.0 mi North 3.5 mph - N/A   Clear
1:54 AM 61.0 °F 48.0 °F 62% 29.81 in 10.0 mi East 5.8 mph - N/A   Clear
2:54 AM 61.0 °F 46.9 °F 60% 29.78 in 10.0 mi NNE 8.1 mph - N/A   Scattered Clouds
3:54 AM 61.0 °F 46.9 °F 60% 29.75 in 10.0 mi NE 8.1 mph - N/A   Clear
4:54 AM 55.9 °F 46.9 °F 72% 29.78 in 10.0 mi West 5.8 mph - N/A   Clear
5:54 AM 55.9 °F 46.9 °F 72% 29.78 in 10.0 mi ENE 6.9 mph - N/A   Clear
6:54 AM 57.0 °F 48.0 °F 72% 29.79 in 10.0 mi ENE 10.4 mph - N/A   Clear
7:54 AM 57.0 °F 48.0 °F 72% 29.82 in 10.0 mi NNE 12.7 mph - N/A   Scattered Clouds
8:54 AM 60.1 °F 48.9 °F 67% 29.83 in 10.0 mi ENE 10.4 mph - N/A   Clear
9:54 AM 66.0 °F 51.1 °F 59% 29.83 in 10.0 mi East 12.7 mph - N/A   Clear
10:54 AM 71.1 °F 48.9 °F 45% 29.82 in 10.0 mi East 15.0 mph - N/A   Clear
11:54 AM 77.0 °F 48.0 °F 36% 29.80 in 10.0 mi East 15.0 mph - N/A   Clear
12:54 PM 79.0 °F 48.0 °F 34% 29.78 in 10.0 mi East 11.5 mph - N/A   Clear
1:54 PM 82.4 °F 46.4 °F 28% 29.85 in 10.0 mi East 12.7 mph - N/A   Clear
2:54 PM 82.0 °F 48.0 °F 30% 29.75 in 10.0 mi East 10.4 mph - N/A   Clear
3:54 PM 84.0 °F 46.9 °F 27% 29.73 in 10.0 mi Variable 6.9 mph 20.7 mph N/A   Clear
4:54 PM 84.0 °F 48.0 °F 28% 29.74 in 10.0 mi ESE 10.4 mph - N/A   Clear
5:54 PM 82.9 °F 46.9 °F 28% 29.73 in 10.0 mi ENE 11.5 mph - N/A   Clear
6:54 PM 78.1 °F 48.9 °F 36% 29.74 in 10.0 mi NE 15.0 mph - N/A   Clear
7:54 PM 73.0 °F 50.0 °F 44% 29.77 in 10.0 mi NNE 21.9 mph - N/A   Clear
8:54 PM 71.1 °F 50.0 °F 47% 29.79 in 10.0 mi NE 19.6 mph - N/A   Mostly Cloudy
9:09 PM 71.6 °F 51.8 °F 50% 29.88 in 10.0 mi NNE 18.4 mph - 0.00 in Rain , Thunderstorm Light Thunderstorms and Rain
9:54 PM 64.9 °F 55.0 °F 70% 29.83 in 10.0 mi NE 17.3 mph - 0.03 in Thunderstorm Thunderstorm
10:12 PM 64.4 °F 55.4 °F 73% 29.89 in 10.0 mi NE 13.8 mph - N/A   Clear
10:54 PM 64.0 °F 55.0 °F 73% 29.81 in 10.0 mi NE 17.3 mph - N/A   Clear
11:54 PM 60.8 °F 55.4 °F 82% 29.89 in 10.0 mi NE 12.7 mph - N/A   Clear